TimeMDT,TemperatureF,Dew PointF,Humidity,Sea Level PressureIn,VisibilityMPH,Wind Direction,Wind SpeedMPH,Gust SpeedMPH,PrecipitationIn,Events,Conditions,WindDirDegrees,DateUTC
12:53 AM,73.9,50.0,43,30.04,10.0,NNE,12.7,-,0.00,,Overcast,20,2013-07-18 06:53:00
1:53 AM,69.1,54.0,58,30.02,10.0,North,11.5,-,N/A,,Clear,10,2013-07-18 07:53:00
2:53 AM,69.1,54.0,58,30.01,10.0,SW,4.6,-,N/A,,Clear,220,2013-07-18 08:53:00
3:53 AM,68.0,55.0,63,30.01,10.0,West,9.2,-,N/A,,Clear,260,2013-07-18 09:53:00
4:53 AM,66.9,53.1,61,30.00,10.0,WNW,5.8,-,N/A,,Clear,290,2013-07-18 10:53:00
5:53 AM,66.9,52.0,59,30.00,10.0,WSW,4.6,-,N/A,,Clear,250,2013-07-18 11:53:00
6:53 AM,68.0,52.0,56,30.02,10.0,WSW,8.1,-,N/A,,Clear,250,2013-07-18 12:53:00
7:53 AM,71.1,51.1,49,30.02,10.0,West,6.9,-,N/A,,Mostly Cloudy,260,2013-07-18 13:53:00
8:53 AM,75.0,50.0,41,30.02,10.0,Variable,3.5,-,N/A,,Clear,0,2013-07-18 14:53:00
9:53 AM,78.1,50.0,37,30.01,10.0,South,4.6,-,N/A,,Clear,190,2013-07-18 15:53:00
10:53 AM,81.0,51.1,35,29.99,10.0,SSE,3.5,-,N/A,,Clear,160,2013-07-18 16:53:00
11:53 AM,86.0,50.0,29,29.97,10.0,Variable,5.8,-,N/A,,Clear,0,2013-07-18 17:53:00
12:53 PM,87.1,46.9,25,29.95,10.0,ESE,8.1,-,N/A,,Clear,110,2013-07-18 18:53:00
1:53 PM,91.0,36.0,14,29.93,10.0,Variable,4.6,16.1,N/A,,Partly Cloudy,0,2013-07-18 19:53:00
2:53 PM,91.9,37.9,15,29.90,10.0,Variable,3.5,-,N/A,,Clear,0,2013-07-18 20:53:00
3:53 PM,96.1,27.0,9,29.88,10.0,NW,12.7,17.3,N/A,,Clear,320,2013-07-18 21:53:00
4:53 PM,95.0,27.0,9,29.87,10.0,NW,11.5,24.2,N/A,,Clear,320,2013-07-18 22:53:00
5:53 PM,93.9,30.0,10,29.86,10.0,NE,10.4,-,N/A,,Clear,50,2013-07-18 23:53:00
6:53 PM,91.9,37.0,15,29.87,10.0,ENE,8.1,-,N/A,,Clear,60,2013-07-19 00:53:00
7:53 PM,90.0,35.1,14,29.87,10.0,NE,8.1,-,N/A,,Clear,50,2013-07-19 01:53:00
8:53 PM,84.0,42.1,23,29.90,10.0,NNE,11.5,-,N/A,,Clear,20,2013-07-19 02:53:00
9:53 PM,81.0,46.0,29,29.93,10.0,North,17.3,25.3,N/A,,Clear,10,2013-07-19 03:53:00
10:53 PM,77.0,46.9,34,29.96,10.0,NE,15.0,23.0,N/A,,Clear,40,2013-07-19 04:53:00
11:53 PM,75.9,45.0,33,29.98,10.0,North,6.9,-,N/A,,Clear,360,2013-07-19 05:53:00